Regional Weather Roundup
Issued by NWS

Home | Current Version | Previous Version | Graphics & Text | Print | Product List | Glossary On
Versions: 1 2 3 4 5 6 7 8 9 10 11 12 13 14 15 16 17 18 19 20 21 22 23 24 25 26 27 28 29 30 31 32 33 34 35 36 37 38 39 40 41 42 43 44 45 46 47 48 49 50
071
ASUS43 KLSX 061607
RWRMO

WEATHER SUMMARY FOR MISSOURI
NATIONAL WEATHER SERVICE SPRINGFIELD MO
1100 AM CDT FRI MAY 06 2016

NOTE: "FAIR" INDICATES FEW OR NO CLOUDS BELOW 12,000 FEET WITH NO
       SIGNIFICANT WEATHER AND/OR OBSTRUCTIONS TO VISIBILITY.
       CURRENT SKY AND/OR WEATHER CONDITIONS ARE NOT AVAILABLE FOR
       CHILLICOTHE AND FARMINGTON.

MOZ001>031-035>038-043-044-053-054-061700-
...NORTHERN AND WESTERN MISSOURI...

CITY           SKY/WX    TMP DP  RH WIND       PRES   REMARKS
KANSAS CTY INT MOSUNNY   72  50  45 SW9       30.08S
KANSAS C DTWN  SUNNY     74  46  36 S10       30.07S
LEE`S SUMMIT   SUNNY     71  43  36 SW10      30.09S
ST JOSEPH      SUNNY     72  50  45 SW12      30.06S
CHILLICOTHE      N/A     73  50  44 VRB6      30.07S
KIRKSVILLE     SUNNY     73  44  35 W6        30.06F

$$
MOZ066>068-077>081-088>096-101>105-061700-
...SOUTHWEST MISSOURI...

CITY           SKY/WX    TMP DP  RH WIND       PRES   REMARKS
SPRINGFIELD    SUNNY     70  35  27 CALM      30.12R
JOPLIN         SUNNY     71  43  36 SW7       30.14R
BRANSON        SUNNY     66  36  32 CALM      30.14R

$$
MOZ032>034-039>042-045>050-055>058-069>072-061700-
...CENTRAL MISSOURI...

CITY           SKY/WX    TMP DP  RH WIND       PRES   REMARKS
COLUMBIA       SUNNY     70  41  34 SW7       30.09F
JEFFERSON CITY SUNNY     69  43  38 VRB3      30.09F
ROLLA          SUNNY     66  45  46 SW6       30.09S
SEDALIA        SUNNY     71  42  35 SW8       30.10S
WHITEMAN AFB   SUNNY     71  46  40 SW6       30.08S
WARRENSBURG    SUNNY     70  43  37 SW9       30.10R
OSAGE BEACH    SUNNY     68  39  34 SW7       30.11S

$$
MOZ051-052-059>065-061700-
...EAST CENTRAL MISSOURI...

CITY           SKY/WX    TMP DP  RH WIND       PRES   REMARKS
ST LOUIS INTL  SUNNY     70  43  37 W8        30.08F
SPIRIT OF STL  SUNNY     68  44  42 W6        30.07F
ST CHARLES     SUNNY     68  43  40 W8        30.07F

$$
MOZ072>076-082>087-097>100-106>115-061700-
...SOUTH CENTRAL AND SOUTHEAST MISSOURI...

CITY           SKY/WX    TMP DP  RH WIND       PRES   REMARKS
CAPE GIRARDEAU SUNNY     68  44  42 N5        30.08F
FARMINGTON     SUNNY     66  42  41 NW6       30.10F
POPLAR BLUFF   SUNNY     68  45  43 NW5       30.10S
WEST PLAINS    SUNNY     66  41  40 W7        30.13F

$$



USA.gov is the U.S. government's official web portal to all federal, state and local government web resources and services.